Change the Weather History Date:

Friday, January 20, 2012

  Actual Average Record
Temperature  
Mean Temperature 37 °F 23 °F  
Max Temperature 44 °F 33 °F 54 °F (1981)
Min Temperature 29 °F 14 °F -33 °F (1949)
Degree Days  
Heating Degree Days 28    
Month to date heating degree days 740  
Since 1 July heating degree days 3860  
Cooling Degree Days 0    
Month to date cooling degree days 0  
Year to date cooling degree days 0  
Moisture  
Dew Point 23 °F    
Average Humidity 54    
Maximum Humidity 72    
Minimum Humidity 36    
Precipitation  
Precipitation 0.00 in 0.01 in 0.18 in (1957)
Month to date precipitation T 0.18  
Year to date precipitation T 0.18  
Snow  
Snow 0.00 in - - ()
Snow Depth 0.00 in    
Sea Level Pressure  
Sea Level Pressure 29.67 in    
Wind  
Wind Speed 13 mph (SSW)    
Max Wind Speed 25 mph    
Max Gust Speed 37 mph    
Visibility 10 miles    
Events      
T = Trace of Precipitation, MM = Missing Value Source: NWS Daily Summary

Daily Weather History Graph

Daily Weather History Graph

Search for Another Location

Airport or City:

Trip Planner

Search our weather history database for the weather conditions in past years. The results will help you decide how hot, cold, wet, or windy it might be!

Date:

Astronomy

Jan. 20, 2012 Rise Set
Actual Time 8:02 AM MST 5:20 PM MST
Civil Twilight 7:30 AM MST 5:52 PM MST
Nautical Twilight 6:53 AM MST 6:28 PM MST
Astronomical Twilight 6:18 AM MST 7:03 PM MST
Moon 5:47 AM MST (1/20) 2:52 PM MST (1/20)
Length of Visible Light 10h 22m
Length of Day
9h 17m
Waning Crescent, 8% of the Moon is Illuminated
Jan 20
Waning Crescent
Jan 23
New
Jan 30
First Quarter
Feb 7
Full
Feb 14
Last Quarter

Hourly Weather History & Observations

Time (MST) Temp. Windchill Dew Point Humidity Pressure Visibility Wind Dir Wind Speed Gust Speed Precip Events Conditions
12:53 AM 37.9 °F 30.9 °F 23.0 °F 55% 29.50 in 10.0 mi SSW 10.4 mph 18.4 mph N/A   Clear
1:53 AM 39.0 °F 31.8 °F 23.0 °F 53% 29.52 in 10.0 mi SW 11.5 mph - N/A   Clear
2:53 AM 37.9 °F 32.1 °F 23.0 °F 55% 29.58 in 10.0 mi SE 8.1 mph - N/A   Mostly Cloudy
3:53 AM 42.1 °F 34.5 °F 23.0 °F 47% 29.61 in 10.0 mi SW 15.0 mph 27.6 mph N/A   Overcast
4:06 AM 39.2 °F 29.6 °F 24.8 °F 56% 29.63 in 10.0 mi SSW 19.6 mph - N/A   Scattered Clouds
4:53 AM 39.0 °F 31.4 °F 24.1 °F 55% 29.66 in 10.0 mi South 12.7 mph - N/A   Overcast
5:53 AM 37.9 °F 29.2 °F 23.0 °F 55% 29.68 in 10.0 mi WSW 15.0 mph - N/A   Scattered Clouds
6:53 AM 37.0 °F 27.4 °F 24.1 °F 59% 29.72 in 10.0 mi SW 17.3 mph 21.9 mph N/A   Overcast
7:53 AM 30.0 °F 21.7 °F 23.0 °F 75% 29.78 in 10.0 mi South 9.2 mph - N/A   Clear
8:53 AM 34.0 °F 26.0 °F 25.0 °F 70% 29.79 in 10.0 mi South 10.4 mph - N/A   Clear
10:53 AM 42.1 °F 34.9 °F 25.0 °F 51% 29.80 in 10.0 mi WSW 13.8 mph - N/A   Clear
11:53 AM 43.0 °F 35.1 °F 21.9 °F 43% 29.81 in 10.0 mi SW 17.3 mph 27.6 mph N/A   Overcast
12:53 PM 43.0 °F 35.4 °F 19.9 °F 40% 29.78 in 10.0 mi SSW 16.1 mph 25.3 mph N/A   Mostly Cloudy
2:53 PM 44.1 °F 36.8 °F 19.0 °F 37% 29.73 in 9.0 mi SW 16.1 mph - N/A   Clear
3:53 PM 43.0 °F 36.8 °F 18.0 °F 37% 29.69 in 10.0 mi SSW 11.5 mph - N/A   Scattered Clouds
4:53 PM 39.0 °F 30.6 °F 21.9 °F 50% 29.71 in 10.0 mi SSE 15.0 mph - N/A   Mostly Cloudy
5:53 PM 37.9 °F 29.2 °F 21.9 °F 53% 29.69 in 10.0 mi South 15.0 mph - N/A   Clear
6:53 PM 37.0 °F 28.1 °F 23.0 °F 57% 29.68 in 10.0 mi South 15.0 mph 24.2 mph N/A   Clear
7:53 PM 37.0 °F 27.7 °F 24.1 °F 59% 29.68 in 10.0 mi SSE 16.1 mph 23.0 mph N/A   Partly Cloudy
8:53 PM 37.9 °F 30.5 °F 25.0 °F 60% 29.63 in 10.0 mi SSE 11.5 mph - N/A   Overcast
9:53 PM 37.0 °F - 25.0 °F 62% 29.57 in 10.0 mi Calm Calm - N/A   Overcast
10:53 PM 32.0 °F 27.5 °F 25.0 °F 75% 29.56 in 10.0 mi ENE 4.6 mph - N/A   Scattered Clouds
11:53 PM 34.0 °F 26.0 °F 25.0 °F 70% 29.51 in 10.0 mi NNW 10.4 mph - N/A   Scattered Clouds